Location: �chenoz-la-M�line
(47.6009°N, 6.1354°E)
Time: 02:50:27
(UTC+00:00)

Cosmos 2237 Rocket - Pass Details

Date: 27 January 2021
Orbit: 833 x 851 km, 71.0° (Epoch: 27 February)

Event Time Altitude Azimuth Distance (km) Brightness Sun altitude
Exits shadow 05:24:39 29° 278° (W) 1,516 2.9 -17.4°
Maximum altitude 05:26:16 34° 309° (NW) 1,372 2.8 -17.1°
Drops below altitude 10° 05:31:26 10° 14° (NNE) 2,487 4.7 -16.2°
Sets 05:34:09 0° 24° (NNE) 3,428 5.5 -15.8°
